Time,TemperatureF,DewpointF,PressureIn,WindDirection,WindDirectionDegrees,WindSpeedMPH,WindSpeedGustMPH,Humidity,HourlyPrecipIn,Conditions,Clouds,dailyrainin,SoftwareType,DateUTC
2013-06-06 00:02:00,54.0,53.0,-100.00,NNE,15,1.0,6.0,94,0.00,,,-99.99,,2013-06-06 05:02:00,
2013-06-06 00:12:00,54.0,53.0,-100.00,NNE,15,1.0,6.0,94,0.00,,,-99.99,,2013-06-06 05:12:00,
2013-06-06 00:22:00,54.0,53.0,-100.00,North,350,1.0,3.0,94,0.00,,,-99.99,,2013-06-06 05:22:00,
2013-06-06 00:32:00,54.0,53.0,-100.00,NE,35,1.0,4.0,94,0.00,,,-99.99,,2013-06-06 05:32:00,
2013-06-06 00:42:00,54.0,53.0,-100.00,NE,35,1.0,4.0,94,0.00,,,-99.99,,2013-06-06 05:42:00,
2013-06-06 00:52:00,54.0,53.0,-100.00,North,355,1.0,4.0,94,0.00,,,-99.99,,2013-06-06 05:52:00,
2013-06-06 01:02:00,54.0,53.0,-100.00,NNE,25,1.0,6.0,94,0.00,,,-99.99,,2013-06-06 06:02:00,
2013-06-06 01:12:00,54.0,53.0,-100.00,NNE,25,1.0,6.0,94,0.00,,,-99.99,,2013-06-06 06:12:00,
2013-06-06 01:22:00,54.0,53.0,-100.00,NE,50,1.0,6.0,95,0.00,,,-99.99,,2013-06-06 06:22:00,
2013-06-06 01:32:00,54.0,53.0,-100.00,NNE,30,2.0,7.0,95,0.00,,,-99.99,,2013-06-06 06:32:00,
2013-06-06 01:42:00,54.0,53.0,-100.00,NNE,30,2.0,7.0,95,0.00,,,-99.99,,2013-06-06 06:42:00,
2013-06-06 01:52:00,54.0,53.0,-100.00,NE,50,2.0,7.0,95,0.00,,,-99.99,,2013-06-06 06:52:00,
2013-06-06 02:02:00,53.0,52.0,-100.00,NE,40,1.0,7.0,95,0.00,,,-99.99,,2013-06-06 07:02:00,
2013-06-06 02:12:00,53.0,52.0,-100.00,NE,40,1.0,7.0,95,0.00,,,-99.99,,2013-06-06 07:12:00,
2013-06-06 02:22:00,49.0,48.0,-100.00,NE,45,2.0,6.0,96,0.00,,,-99.99,,2013-06-06 07:22:00,
2013-06-06 02:32:00,51.0,50.0,-100.00,NNE,20,2.0,6.0,96,0.00,,,-99.99,,2013-06-06 07:32:00,
2013-06-06 02:42:00,51.0,50.0,-100.00,NNE,20,2.0,6.0,96,0.00,,,-99.99,,2013-06-06 07:42:00,
2013-06-06 02:52:00,51.0,51.0,-100.00,NE,35,2.0,7.0,96,0.00,,,-99.99,,2013-06-06 07:52:00,
2013-06-06 03:02:00,52.0,51.0,-100.00,NE,50,1.0,6.0,96,0.00,,,-99.99,,2013-06-06 08:02:00,
2013-06-06 03:12:00,52.0,51.0,-100.00,NE,50,1.0,6.0,96,0.00,,,-99.99,,2013-06-06 08:12:00,
2013-06-06 03:22:00,52.0,51.0,-100.00,NW,320,1.0,6.0,96,0.00,,,-99.99,,2013-06-06 08:22:00,
2013-06-06 03:32:00,52.0,51.0,-100.00,NNE,30,1.0,4.0,96,0.00,,,-99.99,,2013-06-06 08:32:00,
2013-06-06 03:42:00,52.0,51.0,-100.00,NNE,30,1.0,4.0,96,0.00,,,-99.99,,2013-06-06 08:42:00,
2013-06-06 03:52:00,52.0,51.0,-100.00,NE,50,2.0,6.0,96,0.00,,,-99.99,,2013-06-06 08:52:00,
2013-06-06 04:02:00,52.0,51.0,-100.00,NE,50,2.0,7.0,96,0.00,,,-99.99,,2013-06-06 09:02:00,
2013-06-06 04:12:00,52.0,51.0,-100.00,NE,50,2.0,7.0,96,0.00,,,-99.99,,2013-06-06 09:12:00,
2013-06-06 04:22:00,50.0,49.0,-100.00,NE,35,1.0,4.0,96,0.00,,,-99.99,,2013-06-06 09:22:00,
2013-06-06 04:33:00,49.0,48.0,-100.00,NNE,30,0.0,4.0,96,0.00,,,-99.99,,2013-06-06 09:33:00,
2013-06-06 04:43:00,49.0,48.0,-100.00,NNE,30,0.0,4.0,96,0.00,,,-99.99,,2013-06-06 09:43:00,
2013-06-06 04:53:00,50.0,49.0,-100.00,NNE,30,1.0,4.0,96,0.00,,,-99.99,,2013-06-06 09:53:00,
2013-06-06 05:03:00,50.0,49.0,-100.00,NE,35,0.0,4.0,96,0.00,,,-99.99,,2013-06-06 10:03:00,
2013-06-06 05:12:00,50.0,49.0,-100.00,NE,35,0.0,4.0,96,0.00,,,-99.99,,2013-06-06 10:12:00,
2013-06-06 05:23:00,49.0,48.0,-100.00,NE,50,1.0,2.0,96,0.00,,,-99.99,,2013-06-06 10:23:00,
2013-06-06 05:33:00,49.0,49.0,-100.00,NNE,25,0.0,2.0,96,0.00,,,-99.99,,2013-06-06 10:33:00,
2013-06-06 05:42:00,49.0,49.0,-100.00,NNE,25,0.0,2.0,96,0.00,,,-99.99,,2013-06-06 10:42:00,
2013-06-06 05:52:00,51.0,50.0,-100.00,NE,35,1.0,4.0,96,0.00,,,-99.99,,2013-06-06 10:52:00,
2013-06-06 06:02:00,51.0,50.0,-100.00,NE,40,1.0,4.0,96,0.00,,,-99.99,,2013-06-06 11:02:00,
2013-06-06 06:12:00,51.0,50.0,-100.00,NE,40,1.0,4.0,96,0.00,,,-99.99,,2013-06-06 11:12:00,
2013-06-06 06:22:00,51.0,50.0,-100.00,NNE,30,2.0,4.0,96,0.00,,,-99.99,,2013-06-06 11:22:00,
2013-06-06 06:32:00,52.0,51.0,-100.00,NNE,30,1.0,4.0,96,0.00,,,-99.99,,2013-06-06 11:32:00,
2013-06-06 06:42:00,52.0,51.0,-100.00,NNE,30,1.0,4.0,96,0.00,,,-99.99,,2013-06-06 11:42:00,
2013-06-06 06:52:00,52.0,51.0,-100.00,NE,45,1.0,4.0,96,0.00,,,-99.99,,2013-06-06 11:52:00,
2013-06-06 07:03:00,51.0,51.0,-100.00,NNE,20,1.0,4.0,96,0.00,,,-99.99,,2013-06-06 12:03:00,
2013-06-06 07:12:00,51.0,51.0,-100.00,NNE,20,1.0,4.0,96,0.00,,,-99.99,,2013-06-06 12:12:00,
2013-06-06 07:23:00,51.0,50.0,-100.00,NNE,15,1.0,4.0,96,0.00,,,-99.99,,2013-06-06 12:23:00,
2013-06-06 07:33:00,51.0,51.0,-100.00,NNE,25,1.0,4.0,96,0.00,,,-99.99,,2013-06-06 12:33:00,
2013-06-06 07:42:00,51.0,51.0,-100.00,NNE,25,1.0,4.0,96,0.00,,,-99.99,,2013-06-06 12:42:00,
2013-06-06 07:52:00,52.0,51.0,-100.00,North,10,1.0,6.0,96,0.00,,,-99.99,,2013-06-06 12:52:00,
2013-06-06 08:03:00,53.0,52.0,-100.00,East,85,0.0,6.0,96,0.00,,,-99.99,,2013-06-06 13:03:00,
2013-06-06 08:13:00,53.0,52.0,-100.00,East,85,0.0,6.0,96,0.00,,,-99.99,,2013-06-06 13:13:00,
2013-06-06 08:22:00,53.0,52.0,-100.00,NNE,25,1.0,4.0,96,0.00,,,-99.99,,2013-06-06 13:22:00,
2013-06-06 08:32:00,53.0,52.0,-100.00,NNE,25,1.0,5.0,96,0.00,,,-99.99,,2013-06-06 13:32:00,
2013-06-06 08:43:00,53.0,52.0,-100.00,NNE,25,1.0,5.0,96,0.00,,,-99.99,,2013-06-06 13:43:00,
2013-06-06 08:52:00,53.0,51.0,-100.00,NE,45,1.0,4.0,94,0.00,,,-99.99,,2013-06-06 13:52:00,
2013-06-06 09:03:00,53.0,51.0,-100.00,NE,40,1.0,5.0,92,0.00,,,-99.99,,2013-06-06 14:03:00,
2013-06-06 09:13:00,53.0,51.0,-100.00,NE,40,1.0,5.0,92,0.00,,,-99.99,,2013-06-06 14:13:00,
2013-06-06 09:22:00,54.0,51.0,-100.00,ESE,120,0.0,6.0,87,0.00,,,-99.99,,2013-06-06 14:22:00,
2013-06-06 09:33:00,55.0,50.0,-100.00,NE,35,2.0,6.0,84,0.00,,,-99.99,,2013-06-06 14:33:00,
2013-06-06 09:43:00,55.0,50.0,-100.00,NE,35,2.0,6.0,84,0.00,,,-99.99,,2013-06-06 14:43:00,
2013-06-06 09:52:00,56.0,48.0,-100.00,ENE,60,2.0,7.0,75,0.00,,,-99.99,,2013-06-06 14:52:00,
2013-06-06 10:03:00,57.0,49.0,-100.00,North,0,1.0,6.0,73,0.00,,,-99.99,,2013-06-06 15:03:00,
2013-06-06 10:13:00,57.0,49.0,-100.00,North,0,1.0,6.0,73,0.00,,,-99.99,,2013-06-06 15:13:00,
2013-06-06 10:23:00,57.0,47.0,-100.00,NE,45,2.0,9.0,69,0.00,,,-99.99,,2013-06-06 15:23:00,
2013-06-06 10:33:00,58.0,47.0,-100.00,NW,310,1.0,6.0,68,0.00,,,-99.99,,2013-06-06 15:33:00,
2013-06-06 10:43:00,58.0,47.0,-100.00,NW,310,1.0,6.0,68,0.00,,,-99.99,,2013-06-06 15:43:00,
2013-06-06 10:53:00,59.0,48.0,-100.00,NNE,20,4.0,9.0,66,0.00,,,-99.99,,2013-06-06 15:53:00,
2013-06-06 11:03:00,60.0,48.0,-100.00,NNE,25,1.0,9.0,65,0.00,,,-99.99,,2013-06-06 16:03:00,
2013-06-06 11:12:00,60.0,48.0,-100.00,NNE,25,1.0,9.0,65,0.00,,,-99.99,,2013-06-06 16:12:00,
2013-06-06 11:23:00,62.0,47.0,-100.00,NNE,25,4.0,9.0,58,0.00,,,-99.99,,2013-06-06 16:23:00,
2013-06-06 11:33:00,63.0,46.0,-100.00,West,260,3.0,9.0,54,0.00,,,-99.99,,2013-06-06 16:33:00,
2013-06-06 11:44:00,63.0,46.0,-100.00,West,260,3.0,9.0,54,0.00,,,-99.99,,2013-06-06 16:44:00,
2013-06-06 11:52:00,63.0,43.0,-100.00,East,85,3.0,8.0,48,0.00,,,-99.99,,2013-06-06 16:52:00,
2013-06-06 12:03:00,63.0,42.0,-100.00,NNE,15,2.0,9.0,46,0.00,,,-99.99,,2013-06-06 17:03:00,
2013-06-06 12:13:00,63.0,42.0,-100.00,NNE,15,2.0,9.0,46,0.00,,,-99.99,,2013-06-06 17:13:00,
2013-06-06 12:23:00,60.0,40.0,-100.00,NE,45,3.0,9.0,47,0.00,,,-99.99,,2013-06-06 17:23:00,
2013-06-06 12:33:00,67.0,46.0,-100.00,NE,35,2.0,8.0,46,0.00,,,-99.99,,2013-06-06 17:33:00,
2013-06-06 12:43:00,67.0,46.0,-100.00,NE,35,2.0,8.0,46,0.00,,,-99.99,,2013-06-06 17:43:00,
2013-06-06 12:52:00,66.0,47.0,-100.00,ESE,115,2.0,9.0,50,0.00,,,-99.99,,2013-06-06 17:52:00,
2013-06-06 13:03:00,63.0,44.0,-100.00,ESE,110,2.0,7.0,48,0.00,,,-99.99,,2013-06-06 18:03:00,
2013-06-06 13:13:00,63.0,44.0,-100.00,ESE,110,2.0,7.0,48,0.00,,,-99.99,,2013-06-06 18:13:00,
2013-06-06 13:23:00,66.0,46.0,-100.00,North,0,1.0,9.0,48,0.00,,,-99.99,,2013-06-06 18:23:00,
2013-06-06 13:33:00,65.0,45.0,-100.00,East,80,2.0,7.0,47,0.00,,,-99.99,,2013-06-06 18:33:00,
2013-06-06 13:43:00,65.0,45.0,-100.00,East,80,2.0,7.0,47,0.00,,,-99.99,,2013-06-06 18:43:00,
2013-06-06 13:53:00,68.0,45.0,-100.00,East,85,2.0,7.0,43,0.00,,,-99.99,,2013-06-06 18:53:00,
2013-06-06 14:03:00,67.0,45.0,-100.00,NNE,30,2.0,8.0,46,0.00,,,-99.99,,2013-06-06 19:03:00,
2013-06-06 14:13:00,67.0,45.0,-100.00,NNE,30,2.0,8.0,46,0.00,,,-99.99,,2013-06-06 19:13:00,
2013-06-06 14:23:00,69.0,45.0,-100.00,North,0,2.0,8.0,42,0.00,,,-99.99,,2013-06-06 19:23:00,
2013-06-06 14:33:00,70.0,47.0,-100.00,East,85,1.0,6.0,43,0.00,,,-99.99,,2013-06-06 19:33:00,
2013-06-06 14:43:00,70.0,47.0,-100.00,East,85,1.0,6.0,43,0.00,,,-99.99,,2013-06-06 19:43:00,
2013-06-06 14:52:00,69.0,45.0,-100.00,ENE,65,1.0,3.0,42,0.00,,,-99.99,,2013-06-06 19:52:00,
2013-06-06 15:03:00,68.0,45.0,-100.00,East,100,1.0,7.0,44,0.00,,,-99.99,,2013-06-06 20:03:00,
2013-06-06 15:13:00,68.0,45.0,-100.00,East,100,1.0,7.0,44,0.00,,,-99.99,,2013-06-06 20:13:00,
2013-06-06 15:23:00,68.0,46.0,-100.00,East,100,3.0,6.0,45,0.00,,,-99.99,,2013-06-06 20:23:00,
2013-06-06 15:33:00,67.0,46.0,-100.00,North,0,0.0,7.0,46,0.00,,,-99.99,,2013-06-06 20:33:00,
2013-06-06 15:42:00,67.0,46.0,-100.00,North,0,0.0,7.0,46,0.00,,,-99.99,,2013-06-06 20:42:00,
2013-06-06 15:53:00,62.0,41.0,-100.00,ESE,110,4.0,9.0,46,0.00,,,-99.99,,2013-06-06 20:53:00,
2013-06-06 16:03:00,63.0,44.0,-100.00,NNE,25,1.0,7.0,47,0.00,,,-99.99,,2013-06-06 21:03:00,
2013-06-06 16:13:00,63.0,44.0,-100.00,NNE,25,1.0,7.0,47,0.00,,,-99.99,,2013-06-06 21:13:00,
2013-06-06 16:23:00,63.0,43.0,-100.00,ENE,75,2.0,6.0,48,0.00,,,-99.99,,2013-06-06 21:23:00,
2013-06-06 16:33:00,63.0,43.0,-100.00,ESE,110,5.0,8.0,48,0.00,,,-99.99,,2013-06-06 21:33:00,
2013-06-06 16:43:00,63.0,43.0,-100.00,ESE,110,5.0,8.0,48,0.00,,,-99.99,,2013-06-06 21:43:00,
2013-06-06 16:53:00,61.0,43.0,-100.00,East,90,2.0,4.0,51,0.00,,,-99.99,,2013-06-06 21:53:00,
2013-06-06 17:03:00,61.0,43.0,-100.00,East,85,2.0,6.0,51,0.00,,,-99.99,,2013-06-06 22:03:00,
2013-06-06 17:13:00,61.0,43.0,-100.00,East,85,2.0,6.0,51,0.00,,,-99.99,,2013-06-06 22:13:00,
2013-06-06 17:23:00,64.0,45.0,-100.00,North,10,0.0,4.0,49,0.00,,,-99.99,,2013-06-06 22:23:00,
2013-06-06 17:33:00,65.0,46.0,-100.00,East,95,2.0,5.0,48,0.00,,,-99.99,,2013-06-06 22:33:00,
2013-06-06 17:43:00,65.0,46.0,-100.00,East,95,2.0,5.0,48,0.00,,,-99.99,,2013-06-06 22:43:00,
2013-06-06 17:53:00,66.0,45.0,-100.00,North,355,1.0,7.0,46,0.00,,,-99.99,,2013-06-06 22:53:00,
2013-06-06 18:02:00,65.0,44.0,-100.00,ENE,75,2.0,3.0,46,0.00,,,-99.99,,2013-06-06 23:02:00,
2013-06-06 18:12:00,65.0,44.0,-100.00,ENE,75,2.0,3.0,46,0.00,,,-99.99,,2013-06-06 23:12:00,
2013-06-06 18:22:00,64.0,45.0,-100.00,North,350,1.0,2.0,50,0.00,,,-99.99,,2013-06-06 23:22:00,
2013-06-06 18:33:00,63.0,45.0,-100.00,SE,145,2.0,5.0,51,0.00,,,-99.99,,2013-06-06 23:33:00,
2013-06-06 18:43:00,63.0,45.0,-100.00,SE,145,2.0,5.0,51,0.00,,,-99.99,,2013-06-06 23:43:00,
2013-06-06 18:52:00,63.0,45.0,-100.00,SE,135,3.0,7.0,51,0.00,,,-99.99,,2013-06-06 23:52:00,
2013-06-06 19:02:00,63.0,45.0,-100.00,East,90,2.0,6.0,51,0.00,,,-99.99,,2013-06-07 00:02:00,
2013-06-06 19:12:00,63.0,45.0,-100.00,East,90,2.0,6.0,51,0.00,,,-99.99,,2013-06-07 00:12:00,
2013-06-06 19:22:00,63.0,46.0,-100.00,ESE,120,3.0,6.0,52,0.00,,,-99.99,,2013-06-07 00:22:00,
2013-06-06 19:32:00,63.0,46.0,-100.00,East,90,4.0,7.0,54,0.00,,,-99.99,,2013-06-07 00:32:00,
2013-06-06 19:42:00,63.0,46.0,-100.00,East,90,4.0,7.0,54,0.00,,,-99.99,,2013-06-07 00:42:00,
2013-06-06 19:52:00,62.0,46.0,-100.00,SSE,150,4.0,8.0,55,0.00,,,-99.99,,2013-06-07 00:52:00,
2013-06-06 20:02:00,62.0,47.0,-100.00,SE,125,3.0,6.0,56,0.00,,,-99.99,,2013-06-07 01:02:00,
2013-06-06 20:12:00,62.0,47.0,-100.00,SE,125,3.0,6.0,56,0.00,,,-99.99,,2013-06-07 01:12:00,
2013-06-06 20:22:00,62.0,46.0,-100.00,ESE,105,2.0,6.0,57,0.00,,,-99.99,,2013-06-07 01:22:00,
2013-06-06 20:32:00,63.0,48.0,-100.00,SE,125,3.0,7.0,57,0.00,,,-99.99,,2013-06-07 01:32:00,
2013-06-06 20:42:00,63.0,48.0,-100.00,SE,125,3.0,7.0,57,0.00,,,-99.99,,2013-06-07 01:42:00,
2013-06-06 20:52:00,64.0,50.0,-100.00,ESE,115,4.0,6.0,59,0.00,,,-99.99,,2013-06-07 01:52:00,
2013-06-06 21:02:00,64.0,50.0,-100.00,ESE,110,6.0,7.0,61,0.00,,,-99.99,,2013-06-07 02:02:00,
2013-06-06 21:12:00,64.0,50.0,-100.00,ESE,110,6.0,7.0,61,0.00,,,-99.99,,2013-06-07 02:12:00,
2013-06-06 21:22:00,63.0,51.0,-100.00,ESE,115,4.0,6.0,65,0.00,,,-99.99,,2013-06-07 02:22:00,
2013-06-06 21:32:00,62.0,51.0,-100.00,ESE,115,4.0,6.0,66,0.00,,,-99.99,,2013-06-07 02:32:00,
2013-06-06 21:42:00,62.0,51.0,-100.00,ESE,115,4.0,6.0,66,0.00,,,-99.99,,2013-06-07 02:42:00,
2013-06-06 21:52:00,61.0,52.0,-100.00,ESE,120,2.0,5.0,72,0.00,,,-99.99,,2013-06-07 02:52:00,
2013-06-06 22:02:00,61.0,53.0,-100.00,ESE,110,3.0,4.0,74,0.00,,,-99.99,,2013-06-07 03:02:00,
2013-06-06 22:12:00,61.0,53.0,-100.00,ESE,110,3.0,4.0,74,0.00,,,-99.99,,2013-06-07 03:12:00,
2013-06-06 22:22:00,60.0,53.0,-100.00,ESE,120,3.0,7.0,78,0.00,,,-99.99,,2013-06-07 03:22:00,
2013-06-06 22:33:00,60.0,53.0,-100.00,ESE,110,3.0,6.0,79,0.00,,,-99.99,,2013-06-07 03:33:00,
2013-06-06 22:43:00,60.0,53.0,-100.00,ESE,110,3.0,6.0,79,0.00,,,-99.99,,2013-06-07 03:43:00,
2013-06-06 22:53:00,51.0,46.0,-100.00,ESE,105,3.0,6.0,81,0.00,,,-99.99,,2013-06-07 03:53:00,
2013-06-06 23:03:00,59.0,54.0,-100.00,SE,130,3.0,6.0,83,0.00,,,-99.99,,2013-06-07 04:03:00,
2013-06-06 23:12:00,59.0,54.0,-100.00,SE,130,3.0,6.0,83,0.00,,,-99.99,,2013-06-07 04:12:00,
2013-06-06 23:23:00,49.0,45.0,-100.00,ESE,105,3.0,6.0,85,0.00,,,-99.99,,2013-06-07 04:23:00,
2013-06-06 23:33:00,51.0,47.0,-100.00,SE,130,3.0,6.0,86,0.00,,,-99.99,,2013-06-07 04:33:00,
2013-06-06 23:53:00,57.0,53.0,-100.00,ESE,120,4.0,6.0,88,0.00,,,-99.99,,2013-06-07 04:53:00,